Salt Lake City, UT

10:14 AM MST on November 22, 2017 (GMT -0700)
Salt Lake City International

Weather History for KSLC - October, 2010

Change the Weather History Date:

Monday, October 11, 2010

  Actual Average Record
Temperature  
Mean Temperature 58 °F 55 °F  
Max Temperature 68 °F 67 °F 87 °F (1996)
Min Temperature 48 °F 43 °F 27 °F (1946)
Degree Days  
Heating Degree Days 7 10  
Month to date heating degree days 46 94  
Since 1 July heating degree days 80 183  
Cooling Degree Days 0 0  
Month to date cooling degree days 21 5  
Year to date cooling degree days 1142 1158  
Growing Degree Days 7 (Base 50)    
Moisture  
Dew Point 45 °F    
Average Humidity 66    
Maximum Humidity 83    
Minimum Humidity 48    
Precipitation  
Precipitation T in 0.05 in 0.89 in (1997)
Month to date precipitation 0.14 0.52  
Year to date precipitation 11.09 12.24  
Snow  
Snow 0.00 in 0.00 in 0.30 in (1997)
Month to date snowfall 0.0 0.2  
Since 1 July snowfall 0.0 0.2  
Snow Depth 0.00 in    
Sea Level Pressure  
Sea Level Pressure 30.12 in    
Wind  
Wind Speed 6 mph (SSE)    
Max Wind Speed 14 mph    
Max Gust Speed 17 mph    
Visibility 10 miles    
Events      
T = Trace of Precipitation, MM = Missing Value Source: NWS Daily Summary

Daily Weather History Graph

Daily Weather History Graph

Search for Another Location

Airport or City:

Trip Planner

Search our weather history database for the weather conditions in past years. The results will help you decide how hot, cold, wet, or windy it might be!

Date:

Astronomy

Oct. 11, 2010 Rise Set
Actual Time 7:34 AM MDT 6:53 PM MDT
Civil Twilight 7:07 AM MDT 7:21 PM MDT
Nautical Twilight 6:35 AM MDT 7:52 PM MDT
Astronomical Twilight 6:03 AM MDT 8:24 PM MDT
Moon 12:17 PM MDT (10/11) 9:32 PM MDT (10/11)
Length of Visible Light 12h 13m
Length of Day
11h 18m
Waxing Crescent, 20% of the Moon is Illuminated
Oct 11
Waxing Crescent
Oct 14
First Quarter
Oct 22
Full
Oct 30
Last Quarter
Nov 5
New

Hourly Weather History & Observations

Time (MDT) Temp. Dew Point Humidity Pressure Visibility Wind Dir Wind Speed Gust Speed Precip Events Conditions
12:53 AM 51.1 °F 43.0 °F 74% 30.06 in 10.0 mi SE 8.1 mph - N/A   Clear
1:53 AM 51.1 °F 43.0 °F 74% 30.05 in 10.0 mi ESE 9.2 mph - N/A   Clear
2:53 AM 48.9 °F 42.1 °F 77% 30.06 in 10.0 mi SE 6.9 mph - N/A   Clear
3:53 AM 48.2 °F 42.8 °F 82% 30.13 in 10.0 mi SSE 3.5 mph - N/A   Clear
4:53 AM 48.9 °F 42.1 °F 77% 30.05 in 10.0 mi SE 4.6 mph - N/A   Clear
5:53 AM 48.0 °F 42.1 °F 80% 30.07 in 10.0 mi ESE 6.9 mph - N/A   Clear
6:53 AM 50.0 °F 43.0 °F 77% 30.08 in 10.0 mi SE 9.2 mph - N/A   Scattered Clouds
7:53 AM 50.0 °F 44.1 °F 80% 30.10 in 10.0 mi SSE 8.1 mph - N/A   Mostly Cloudy
8:53 AM 53.1 °F 44.1 °F 71% 30.10 in 10.0 mi SE 9.2 mph - N/A   Mostly Cloudy
9:53 AM 57.0 °F 44.1 °F 62% 30.11 in 10.0 mi SE 10.4 mph - N/A   Mostly Cloudy
10:53 AM 61.0 °F 43.0 °F 52% 30.13 in 10.0 mi NNE 6.9 mph - N/A   Mostly Cloudy
11:53 AM 64.0 °F 43.0 °F 46% 30.13 in 10.0 mi NNE 6.9 mph - N/A   Mostly Cloudy
12:53 PM 63.0 °F 45.0 °F 52% 30.14 in 10.0 mi Calm Calm - 0.00 in   Mostly Cloudy
1:53 PM 66.0 °F 48.0 °F 52% 30.12 in 10.0 mi NNW 4.6 mph - N/A   Mostly Cloudy
2:53 PM 64.9 °F 46.9 °F 52% 30.12 in 10.0 mi NW 10.4 mph - N/A   Mostly Cloudy
3:53 PM 66.0 °F 46.9 °F 50% 30.12 in 10.0 mi NW 9.2 mph - N/A   Mostly Cloudy
4:53 PM 66.0 °F 48.0 °F 52% 30.12 in 10.0 mi WNW 11.5 mph - N/A   Mostly Cloudy
5:53 PM 64.0 °F 48.0 °F 56% 30.14 in 10.0 mi WNW 9.2 mph - N/A   Mostly Cloudy
6:53 PM 62.1 °F 46.9 °F 58% 30.14 in 10.0 mi WNW 8.1 mph - N/A   Scattered Clouds
7:53 PM 55.9 °F 46.9 °F 72% 30.16 in 10.0 mi West 3.5 mph - N/A   Mostly Cloudy
8:53 PM 57.0 °F 48.0 °F 72% 30.16 in 10.0 mi NW 3.5 mph - N/A   Scattered Clouds
9:53 PM 55.0 °F 48.0 °F 77% 30.17 in 10.0 mi Calm Calm - N/A   Partly Cloudy
10:53 PM 53.1 °F 46.9 °F 80% 30.18 in 10.0 mi WSW 4.6 mph - N/A   Partly Cloudy
11:53 PM 51.1 °F 46.0 °F 83% 30.20 in 10.0 mi Calm Calm - N/A   Partly Cloudy